Weather History for Clinton, AR

Change the Weather History Date:

Saturday, January 19, 2013

  Actual Average (KFLP) Record (KFLP)
Temperature  
Mean Temperature 44 °F -  
Max Temperature 62 °F 45 °F 66 °F (1999)
Min Temperature 26 °F 25 °F 14 °F (2008)
Degree Days  
Heating Degree Days 21    
Moisture  
Dew Point 32 °F    
Average Humidity 76    
Maximum Humidity 100    
Minimum Humidity 39    
Precipitation  
Precipitation 0.00 in - - ()
Sea Level Pressure  
Sea Level Pressure 30.22 in    
Wind  
Wind Speed 2 mph (SSW)    
Max Wind Speed 14 mph    
Max Gust Speed 18 mph    
Visibility 9 miles    
Events      
Averages and records for this station are not official NWS values.
T = Trace of Precipitation, MM = Missing Value Source: NWS Daily Summary

Daily Weather History Graph

Daily Weather History Graph

Search for Another Location

Airport:

Trip Planner

Search our weather history database for the weather conditions in past years. The results will help you decide how hot, cold, wet, or windy it might be!

Date:

Astronomy

Jan. 19, 2013 Rise Set
Actual Time 7:17 AM CST 5:24 PM CST
Civil Twilight 6:49 AM CST 5:51 PM CST
Nautical Twilight 6:18 AM CST 6:23 PM CST
Astronomical Twilight 5:48 AM CST 6:53 PM CST
Moon 11:48 AM CST (1/19) 12:55 AM CST (1/19)
Length of Visible Light 11h 02m
Length of Day
10h 07m
First Quarter, 57% of the Moon is Illuminated
Jan 19
First Quarter
Jan 26
Full
Feb 3
Last Quarter
Feb 10
New
Feb 17
First Quarter

Hourly Weather History & Observations

Time (CST) Temp. Dew Point Humidity Pressure Visibility Wind Dir Wind Speed Gust Speed Precip Events Conditions
12:15 AM 30.2 °F 28.4 °F 93% 30.31 in 7.0 mi Calm Calm - N/A   Clear
12:35 AM 30.2 °F 28.4 °F 93% 30.30 in 6.0 mi Calm Calm - N/A   Clear
12:55 AM 28.4 °F 28.4 °F 100% 30.31 in 7.0 mi Calm Calm - N/A   Clear
1:15 AM 28.4 °F 28.4 °F 100% 30.31 in 7.0 mi Calm Calm - N/A   Clear
1:35 AM 28.4 °F 28.4 °F 100% 30.30 in 6.0 mi Calm Calm - N/A   Clear
1:55 AM 28.4 °F 28.4 °F 100% 30.30 in 7.0 mi Calm Calm - N/A   Clear
2:15 AM 28.4 °F 26.6 °F 93% 30.30 in 7.0 mi Calm Calm - N/A   Clear
2:35 AM 28.4 °F 26.6 °F 93% 30.30 in 8.0 mi Calm Calm - N/A   Clear
2:55 AM 28.4 °F 26.6 °F 93% 30.30 in 7.0 mi Calm Calm - N/A   Clear
3:15 AM 28.4 °F 26.6 °F 93% 30.30 in 7.0 mi Calm Calm - N/A   Clear
3:35 AM 28.4 °F 26.6 °F 93% 30.29 in 7.0 mi Calm Calm - N/A   Clear
3:55 AM 28.4 °F 26.6 °F 93% 30.28 in 7.0 mi Calm Calm - N/A   Clear
4:15 AM 28.4 °F 26.6 °F 93% 30.28 in 8.0 mi Calm Calm - N/A   Clear
4:35 AM 28.4 °F 26.6 °F 93% 30.27 in 8.0 mi Calm Calm - N/A   Clear
4:55 AM 26.6 °F 26.6 °F 100% 30.27 in 8.0 mi Calm Calm - N/A   Clear
5:15 AM 26.6 °F 26.6 °F 100% 30.27 in 8.0 mi Calm Calm - N/A   Clear
5:35 AM 26.6 °F 26.6 °F 100% 30.27 in 9.0 mi Calm Calm - N/A   Clear
6:35 AM 26.6 °F 26.6 °F 100% 30.27 in 10.0 mi Calm Calm - N/A   Clear
6:55 AM 26.6 °F 26.6 °F 100% 30.27 in 9.0 mi Calm Calm - N/A   Clear
7:15 AM 26.6 °F 26.6 °F 100% 30.27 in 9.0 mi Calm Calm - N/A   Clear
8:35 AM 30.2 °F 28.4 °F 93% 30.27 in 9.0 mi Calm Calm - N/A   Clear
9:55 AM 42.8 °F 32.0 °F 66% 30.29 in 10.0 mi Calm Calm - N/A   Clear
10:15 AM 44.6 °F 32.0 °F 61% 30.28 in 10.0 mi Calm Calm - N/A   Clear
10:55 AM 51.8 °F 32.0 °F 47% 30.25 in 10.0 mi WSW 4.6 mph - N/A   Clear
11:15 AM 53.6 °F 32.0 °F 44% 30.24 in 10.0 mi WSW 8.1 mph - N/A   Clear
11:55 AM 55.4 °F 33.8 °F 44% 30.21 in 10.0 mi SW 10.4 mph - N/A   Clear
12:15 PM 57.2 °F 33.8 °F 41% 30.20 in 10.0 mi SSW 9.2 mph 16.1 mph N/A   Clear
12:35 PM 57.2 °F 35.6 °F 44% 30.19 in 10.0 mi SSW 10.4 mph - N/A   Clear
12:55 PM 57.2 °F 35.6 °F 44% 30.18 in 10.0 mi SSW 10.4 mph - N/A   Clear
1:15 PM 57.2 °F 35.6 °F 44% 30.17 in 10.0 mi SW 12.7 mph - N/A   Clear
1:35 PM 59.0 °F 35.6 °F 42% 30.17 in 10.0 mi SW 10.4 mph - N/A   Clear
1:55 PM 59.0 °F 35.6 °F 42% 30.16 in 10.0 mi SW 13.8 mph 18.4 mph N/A   Clear
2:15 PM 60.8 °F 37.4 °F 42% 30.15 in 10.0 mi SSW 10.4 mph - N/A   Clear
2:35 PM 60.8 °F 37.4 °F 42% 30.14 in 10.0 mi South 10.4 mph 16.1 mph N/A   Clear
2:55 PM 60.8 °F 37.4 °F 42% 30.14 in 10.0 mi SW 9.2 mph - N/A   Clear
3:15 PM 62.6 °F 37.4 °F 39% 30.14 in 10.0 mi SSW 3.5 mph - N/A   Clear
3:35 PM 60.8 °F 37.4 °F 42% 30.14 in 10.0 mi South 8.1 mph - N/A   Clear
3:55 PM 60.8 °F 39.2 °F 45% 30.13 in 10.0 mi South 8.1 mph - N/A   Clear
4:15 PM 60.8 °F 37.4 °F 42% 30.14 in 10.0 mi SW 9.2 mph - N/A   Clear
4:35 PM 60.8 °F 37.4 °F 42% 30.14 in 10.0 mi SSW 6.9 mph - N/A   Clear
4:55 PM 59.0 °F 37.4 °F 45% 30.13 in 10.0 mi Calm Calm - N/A   Clear
5:15 PM 57.2 °F 37.4 °F 48% 30.14 in 10.0 mi Calm Calm - N/A   Clear
5:35 PM 51.8 °F 39.2 °F 62% 30.14 in 10.0 mi Calm Calm - N/A   Clear
5:55 PM 48.2 °F 37.4 °F 66% 30.14 in 10.0 mi Calm Calm - N/A   Clear
6:15 PM 44.6 °F 37.4 °F 76% 30.15 in 10.0 mi Calm Calm - N/A   Clear
6:35 PM 42.8 °F 37.4 °F 81% 30.15 in 10.0 mi Calm Calm - N/A   Clear
6:55 PM 42.8 °F 37.4 °F 81% 30.16 in 10.0 mi Calm Calm - N/A   Clear
7:15 PM 41.0 °F 35.6 °F 81% 30.17 in 9.0 mi Calm Calm - N/A   Clear
7:35 PM 39.2 °F 35.6 °F 87% 30.17 in 10.0 mi Calm Calm - N/A   Clear
7:55 PM 37.4 °F 35.6 °F 93% 30.18 in 10.0 mi Calm Calm - N/A   Clear
8:15 PM 37.4 °F 35.6 °F 93% 30.19 in 10.0 mi Calm Calm - N/A   Clear
8:35 PM 35.6 °F 33.8 °F 93% 30.20 in 10.0 mi Calm Calm - N/A   Clear
8:55 PM 35.6 °F 33.8 °F 93% 30.20 in 10.0 mi Calm Calm - N/A   Clear
9:15 PM 35.6 °F 33.8 °F 93% 30.20 in 10.0 mi Calm Calm - N/A   Clear
9:35 PM 35.6 °F 33.8 °F 93% 30.21 in 10.0 mi Calm Calm - N/A   Clear
9:55 PM 33.8 °F 33.8 °F 100% 30.21 in 10.0 mi Calm Calm - N/A   Clear
10:15 PM 33.8 °F 32.0 °F 93% 30.22 in 10.0 mi Calm Calm - N/A   Clear
10:35 PM 33.8 °F 32.0 °F 93% 30.22 in 10.0 mi Calm Calm - N/A   Clear
10:55 PM 33.8 °F 32.0 °F 93% 30.22 in 9.0 mi Calm Calm - N/A   Clear
11:15 PM 32.0 °F 32.0 °F 100% 30.22 in 9.0 mi Calm Calm - N/A   Clear
11:35 PM 32.0 °F 32.0 °F 100% 30.22 in 9.0 mi Calm Calm - N/A   Clear
11:55 PM 32.0 °F 32.0 °F 100% 30.22 in 10.0 mi Calm Calm - N/A   Clear